Theta_e
299 300 300 300 300 301 300 300 301 301 301 301 300 301 301 301 301 298 294 299 292 285 287 287 288 284 284 284 280 279 280 279 279 275 275 274 272 274 272 275 274 272 271 270 271 268 266 280 278 274 279 282 282 282
298 298 299 300 300 300 301 300 300 301 300 300 300 300 301 301 301 300 292 294 295 286 287 291 291 291 290 289 286 281 284 279 282 278 278 278 273 274 273 269 277 270 275 273 273 273 280 281 281 283 283 282 282 282
297 297 297 298 298 299 300 300 300 300 301 301 300 300 300 301 300 299 296 294 291 285 285 286 285 291 292 292 293 284 284 286 284 287 283 279 274 277 271 272 274 277 280 275 275 277 279 281 283 283 283 283 284 284
297 297 297 297 297 297 298 298 299 300 300 300 300 300 300 300 300 299 294 294 291 286 281 284 290 289 294 293 291 291 289 288 287 286 281 279 275 280 275 277 276 278 279 276 276 278 280 281 282 282 283 283 283 283
296 297 297 297 297 297 297 297 297 298 299 299 300 300 300 300 300 299 296 295 295 288 282 283 285 289 290 291 290 290 288 286 283 280 279 277 280 279 279 278 276 279 277 275 273 279 279 280 283 283 282 282 282 281
295 296 296 297 297 297 297 297 297 297 297 298 299 299 299 299 299 294 286 293 295 293 284 278 288 286 287 289 288 287 287 285 284 281 280 281 283 279 275 273 279 281 282 282 279 282 282 283 283 284 281 281 278 276
295 295 295 296 296 296 296 296 296 296 297 297 298 298 299 299 297 287 285 291 295 293 283 279 279 282 283 286 286 286 287 284 284 282 280 280 281 281 276 272 279 281 282 283 283 282 280 281 280 281 276 275 272 270
294 294 294 295 295 295 295 295 295 296 296 296 297 298 298 298 297 290 294 293 295 288 284 278 277 277 281 279 279 284 281 281 282 281 281 279 280 280 273 278 281 281 282 282 282 279 277 276 274 271 271 269 268 268
292 293 293 293 293 294 294 294 295 295 296 296 296 297 295 291 286 288 296 296 294 287 280 279 276 274 278 280 281 279 282 277 282 278 278 279 276 273 277 278 279 280 279 278 272 270 270 270 271 268 267 265 265 266
291 291 292 292 292 292 293 293 294 295 295 295 293 285 283 286 295 294 290 284 283 283 283 279 283 277 279 277 276 277 278 276 273 276 280 275 274 279 280 279 274 270 269 269 268 268 266 266 267 266 265 265 264 263
290 290 290 290 291 291 292 292 293 294 294 288 284 284 288 294 288 284 281 279 280 277 280 281 280 275 278 275 275 279 275 276 270 274 273 272 272 277 278 269 267 266 265 264 264 264 263 263 265 264 263 262 261 260
290 290 290 290 290 290 291 292 292 290 287 287 287 287 286 284 282 278 276 278 276 275 276 277 278 281 277 281 277 276 273 273 269 272 271 268 274 271 268 265 263 262 261 259 260 260 260 260 260 259 258 258 257 257
289 289 289 289 289 289 290 291 292 292 291 286 284 281 280 279 273 271 270 273 273 274 274 275 275 279 277 278 276 274 271 269 270 268 267 272 272 263 261 259 257 257 258 258 257 257 257 257 257 256 255 255 254 253
289 289 289 289 289 289 290 290 291 290 285 280 278 273 274 272 274 275 276 277 278 277 274 277 275 275 277 274 275 270 270 268 266 265 267 274 269 260 259 258 256 255 255 255 255 255 254 254 254 255 254 253 251 251
289 289 289 288 289 289 289 290 290 288 284 278 277 271 273 274 270 268 268 272 272 277 275 273 273 275 273 273 273 268 265 265 266 267 273 269 259 256 255 255 254 254 253 253 253 252 252 252 252 251 251 251 251 250
287 287 285 287 288 289 289 289 287 285 281 278 273 270 266 271 270 266 267 271 270 275 276 276 272 270 269 271 268 267 265 263 269 271 263 257 255 255 254 253 253 252 251 251 251 251 251 249 249 250 249 249 249 250
284 279 285 286 286 287 286 283 278 272 273 269 266 264 266 268 269 267 268 269 270 274 273 272 268 268 271 268 266 270 268 272 263 258 258 257 255 253 251 251 250 249 250 250 250 249 249 250 247 248 249 254 252 254
279 281 287 286 283 278 271 270 271 270 264 262 265 262 261 261 262 263 264 267 270 271 271 271 271 267 267 265 267 270 260 254 256 256 256 253 252 251 252 253 250 250 250 248 248 248 247 248 251 254 253 255 254 256
280 281 282 283 279 272 268 265 265 263 258 259 259 260 260 259 260 260 261 263 264 265 270 270 269 268 268 268 265 259 257 258 256 254 253 251 252 252 251 249 250 250 249 251 252 254 253 251 253 254 255 256 256 257
281 280 280 277 277 270 265 262 265 262 259 258 259 258 258 258 258 259 260 260 262 267 267 267 269 262 261 257 256 258 257 256 256 254 253 253 252 249 251 252 254 253 253 252 253 253 255 255 256 256 255 256 255 255
275 275 276 271 266 263 261 260 258 257 257 256 256 258 256 257 257 258 259 257 263 263 263 256 254 252 251 251 252 255 255 257 256 257 256 253 252 253 252 252 252 254 254 254 254 254 254 254 255 255 255 255 255 256
270 273 270 271 264 261 259 259 258 258 256 254 256 257 256 256 256 255 252 258 259 253 252 253 253 252 252 252 250 249 249 250 250 250 252 252 251 252 253 254 253 253 253 254 254 254 254 255 255 255 255 255 255 255
267 268 264 263 260 259 255 260 257 255 256 255 255 256 254 254 252 253 256 254 251 247 246 247 246 245 249 246 246 246 245 249 252 252 252 253 254 253 254 254 254 253 253 254 255 255 255 255 255 255 255 255 255 255
262 254 253 253 256 253 254 254 256 255 255 255 256 255 253 252 250 255 257 254 249 248 248 247 249 249 249 249 251 250 249 249 251 250 251 252 253 253 254 254 254 254 255 255 255 255 255 255 255 255 255 254 254 254
257 247 249 249 251 252 251 253 253 255 253 251 253 253 250 247 254 254 254 253 251 250 249 246 248 250 251 250 250 250 243 250 253 253 252 253 254 254 254 255 255 256 256 254 254 255 255 254 254 254 254 253 253 253
246 242 246 245 248 250 248 251 250 250 250 252 250 247 247 251 253 252 251 251 250 250 248 248 250 250 250 251 252 251 252 249 251 253 254 254 254 254 254 255 255 255 256 256 255 254 254 254 253 253 253 253 253 252
246 244 244 243 244 245 246 245 245 249 250 250 248 249 250 251 249 251 251 249 249 249 248 250 251 252 254 252 252 252 252 251 253 255 256 256 256 256 256 255 254 256 256 255 255 254 253 253 253 253 253 253 253 253
242 241 242 243 244 243 244 244 246 245 246 244 244 246 247 248 248 251 250 249 246 246 247 248 250 252 253 254 255 254 254 254 254 254 255 255 255 255 254 255 255 259 256 255 255 254 253 253 253 253 253 252 253 253
243 240 239 243 244 246 244 246 246 245 243 244 247 249 249 249 248 248 249 247 246 248 249 250 251 252 253 254 254 254 255 254 253 250 250 251 252 253 252 252 252 253 254 254 256 258 256 254 254 253 253 253 253 252
241 237 244 244 246 246 243 240 242 239 238 239 238 242 245 247 247 243 245 247 250 250 249 250 252 253 254 255 255 255 253 252 251 251 249 249 250 251 251 252 253 254 254 252 252 252 254 253 251 248 249 249 250 250
238 239 242 243 243 242 239 235 234 234 235 237 234 239 243 243 245 246 247 247 247 249 250 252 252 253 254 254 254 255 254 249 245 245 246 249 251 251 252 253 254 253 252 250 250 249 249 249 248 248 248 248 248 248
242 239 241 243 243 239 236 238 238 240 239 242 244 241 244 246 251 252 250 249 251 252 253 253 253 254 254 254 253 251 249 248 249 251 251 253 254 254 254 254 254 252 250 250 249 248 247 246 247 248 248 248 248 248
243 242 243 244 247 246 243 242 246 246 245 245 243 240 241 243 248 251 251 249 248 248 250 251 250 250 250 249 249 250 251 253 254 258 259 259 258 258 258 257 256 253 251 251 250 249 248 247 247 247 247 247 248 248
Wind_Speed
17 19 20 20 20 21 19 20 19 20 20 20 19 21 21 20 20 11 3 9 7 5 6 11 10 6 7 9 6 5 5 3 5 7 5 6 6 8 4 8 5 7 6 7 7 11 15 3 6 7 2 5 8 8
21 20 15 17 19 19 21 21 20 20 22 22 22 22 22 21 21 18 5 7 6 4 3 5 14 15 13 11 7 6 2 5 7 7 6 4 5 4 7 7 10 8 11 6 8 6 5 8 8 9 12 12 17 16
19 21 22 20 16 16 17 20 23 23 23 21 23 23 20 24 23 19 8 6 4 4 4 5 9 12 14 16 12 7 4 8 5 6 4 5 9 6 8 11 16 15 20 14 15 17 21 19 19 19 19 18 18 16
21 21 18 18 20 19 17 15 16 19 21 21 23 22 21 21 23 23 10 6 6 0 5 4 2 15 17 15 18 17 13 5 8 4 6 7 7 9 10 11 11 13 9 14 15 21 18 20 21 20 20 18 17 10
18 19 20 21 20 18 19 19 18 17 19 19 21 22 19 22 22 15 8 7 11 8 2 2 2 7 11 13 18 18 16 9 5 5 6 8 8 8 8 9 11 17 20 14 16 20 17 19 18 14 13 17 13 9
19 17 18 21 20 20 20 20 20 19 19 20 20 21 22 21 20 7 5 7 11 7 4 6 2 4 11 15 16 14 14 11 5 4 5 7 15 6 5 10 19 21 20 19 20 20 21 20 18 16 13 14 3 4
19 19 19 18 19 20 20 20 20 20 20 20 22 21 21 21 11 5 2 3 17 10 4 3 4 3 2 7 6 6 9 5 5 5 6 9 9 7 7 16 19 20 19 18 16 15 19 20 13 7 3 5 5 4
18 19 19 18 18 18 18 19 20 21 21 21 22 22 22 22 17 12 9 4 9 6 4 4 3 2 6 6 6 4 5 3 5 5 4 8 5 8 10 13 19 21 19 17 17 5 7 5 2 5 5 4 3 3
14 15 15 15 15 16 17 18 19 20 20 20 20 21 10 9 5 3 12 19 9 5 4 5 7 7 5 5 4 4 5 6 4 7 9 6 6 9 13 19 18 17 14 14 4 3 1 3 3 4 3 2 2 3
14 15 16 16 16 16 16 17 17 17 16 16 9 4 5 5 13 14 11 7 9 6 5 5 7 7 8 8 8 6 4 4 5 7 2 6 13 19 19 10 1 3 3 2 1 3 2 3 5 4 3 1 3 3
14 14 13 13 14 15 17 16 14 13 12 4 5 4 1 10 4 5 7 8 5 6 6 6 10 8 4 6 6 6 5 4 5 5 7 5 7 13 8 6 6 6 5 4 3 4 3 3 1 3 3 3 3 4
15 15 15 15 15 15 14 16 16 8 3 2 2 3 2 4 5 7 6 6 6 6 6 7 7 8 5 3 4 7 5 6 6 4 4 5 8 4 6 6 5 5 4 5 4 4 3 2 2 1 3 3 4 4
16 17 17 17 17 16 17 17 17 15 6 2 3 6 5 6 10 10 9 5 6 6 7 7 7 6 4 5 4 5 9 7 6 6 5 7 3 5 6 6 5 4 4 4 4 2 1 1 1 2 4 3 3 4
17 18 19 19 18 18 17 20 18 13 5 6 6 8 7 5 7 6 8 7 4 5 9 8 6 5 4 7 4 5 3 4 6 6 8 8 4 7 6 5 6 5 3 1 1 2 3 3 4 4 4 4 3 6
14 20 16 14 17 18 19 19 20 9 4 4 6 7 7 1 3 3 2 3 3 4 9 5 3 4 4 5 4 5 6 6 7 8 9 3 5 8 7 6 5 4 3 1 0 2 4 5 5 6 5 4 5 6
6 9 5 10 12 14 17 17 11 5 3 5 1 2 2 3 3 3 3 2 1 6 4 2 5 5 6 4 7 7 7 8 6 2 4 5 6 5 6 5 4 2 1 0 1 2 4 3 4 6 7 7 7 6
10 3 13 13 8 8 14 3 2 3 0 4 3 2 2 2 4 3 3 3 3 5 4 4 8 8 5 4 5 5 6 3 3 3 4 5 7 7 5 4 3 3 2 1 1 2 3 3 2 4 6 6 5 7
3 6 18 4 4 5 4 6 3 2 4 2 2 3 2 2 1 2 2 2 3 3 2 2 3 5 5 7 4 3 3 3 4 4 5 5 5 5 3 4 3 2 1 0 2 2 2 3 4 4 4 5 6 5
3 6 14 12 6 4 3 4 4 4 4 2 3 2 2 2 2 2 3 3 3 2 1 3 3 3 3 0 2 3 3 3 4 4 4 4 3 4 3 2 1 2 1 0 1 2 2 2 3 4 5 5 5 4
6 8 9 14 7 3 4 3 3 3 3 3 2 2 2 2 2 2 2 3 3 2 3 3 1 3 3 2 3 3 5 6 7 5 3 4 3 3 3 2 1 2 1 2 2 2 1 1 2 3 4 4 5 5
5 6 8 5 5 7 5 3 4 3 3 3 1 2 3 1 2 2 2 4 2 1 0 3 2 2 3 2 3 4 6 4 3 2 3 5 4 3 3 2 1 1 1 0 0 0 1 2 3 3 4 3 4 4
3 7 3 5 5 4 5 5 3 2 3 2 2 1 2 1 2 3 4 2 2 2 2 2 2 2 3 4 5 6 4 6 5 5 6 9 5 4 3 3 3 2 1 1 0 1 2 2 3 3 3 3 4 4
6 4 5 5 5 6 3 2 2 4 2 2 2 2 2 1 1 3 2 1 2 2 2 3 3 4 4 3 3 4 2 3 4 4 4 4 4 2 2 3 2 2 2 2 1 2 2 3 3 3 3 3 4 4
11 9 8 6 6 3 1 3 2 2 1 1 1 2 2 2 4 2 1 2 2 0 1 2 2 4 3 2 1 2 2 1 4 3 2 3 3 3 3 2 3 3 2 0 1 1 1 2 3 3 3 4 4 4
6 11 7 6 4 3 4 2 2 1 2 3 1 1 2 3 2 1 2 3 1 1 2 2 1 1 2 2 1 1 1 0 2 3 3 3 1 2 2 2 3 3 3 3 3 2 2 2 3 3 4 4 5 6
10 6 6 4 4 3 3 2 3 3 1 2 3 1 1 1 2 1 3 3 2 1 3 4 3 2 1 1 3 2 3 4 1 1 2 4 3 2 2 3 2 2 4 4 2 2 3 3 4 5 5 6 6 6
7 5 4 1 1 0 2 1 0 1 3 3 2 1 1 2 1 2 2 1 2 2 2 1 1 1 1 3 2 1 1 4 3 1 1 2 3 3 3 3 3 1 2 3 4 4 4 4 5 5 6 5 5 5
3 5 3 5 2 1 2 1 3 3 2 2 1 2 2 2 0 3 3 2 3 3 2 2 2 2 1 1 1 3 2 3 3 3 3 3 4 3 3 3 3 5 3 3 4 4 5 5 6 6 7 7 8 5
3 3 2 3 1 3 4 4 3 2 2 2 2 2 2 2 2 3 2 3 3 2 1 1 1 1 1 1 1 1 1 3 1 2 2 1 2 1 1 1 2 2 3 3 7 8 8 7 8 8 9 7 7 5
4 3 3 2 3 4 2 2 1 2 1 2 2 3 3 2 1 1 3 3 2 2 1 1 1 2 1 2 1 2 2 1 1 2 2 2 2 1 2 3 3 3 3 3 5 6 7 5 4 3 4 5 5 6
3 2 1 1 1 1 1 2 1 1 1 1 0 1 2 4 4 1 2 2 2 2 1 1 1 2 2 2 1 1 2 2 1 3 3 3 4 4 4 4 4 3 3 3 4 5 6 5 6 7 8 9 9 8
2 3 2 3 2 1 1 2 1 1 1 1 1 2 2 2 3 2 3 4 3 2 2 2 2 1 2 2 1 1 1 3 3 3 5 4 5 6 6 5 4 4 4 5 5 5 6 8 7 8 9 12 11 10
2 1 1 2 1 1 4 4 0 1 1 2 3 2 2 2 4 2 2 1 2 4 4 3 3 3 4 3 3 3 3 3 5 9 11 12 12 11 8 6 5 5 6 6 6 6 8 10 9 10 11 11 11 11
Wind_Direction
257 257 253 247 240 244 246 234 231 232 229 223 226 228 230 219 209 208 199 202 186 208 228 211 196 170 165 190 182 131 141 187 180 211 211 211 241 206 251 242 237 218 235 218 236 257 266 80 122 225 294 135 170 235
256 252 251 256 256 245 239 239 244 232 231 234 237 233 238 230 221 201 219 188 208 210 292 268 243 235 218 195 213 186 192 154 175 203 203 211 197 212 225 240 215 237 237 266 229 243 204 189 251 253 267 276 285 289
249 250 253 254 253 253 256 257 247 239 237 236 230 241 223 229 229 215 218 149 187 210 238 211 213 223 233 235 228 218 220 204 210 201 180 214 233 192 222 224 256 263 254 250 254 249 260 270 268 269 271 274 284 284
250 244 246 249 252 249 250 255 260 256 247 241 235 237 238 228 222 224 215 173 183 130 244 212 242 232 239 227 227 233 236 204 256 186 213 219 223 209 234 245 245 247 283 253 256 257 266 260 261 264 266 268 273 284
254 251 248 243 246 250 254 255 254 254 255 246 243 238 240 235 231 228 219 190 195 206 291 264 139 212 197 210 224 225 228 207 194 199 207 216 235 241 227 254 245 244 251 253 256 259 260 269 275 280 284 281 266 253
245 247 256 250 244 244 245 246 252 254 247 245 241 240 237 235 228 227 225 189 192 194 224 206 263 200 184 203 207 214 213 215 221 211 214 231 244 222 226 238 242 250 256 251 259 258 260 269 276 287 289 285 206 185
252 256 250 248 245 245 250 255 255 250 252 245 239 236 234 230 216 194 227 50 187 164 221 211 209 120 189 185 208 218 218 216 223 228 225 233 227 217 237 245 251 258 260 259 253 263 268 266 278 311 170 124 101 95
247 247 252 251 246 247 252 256 254 251 250 247 243 237 232 229 230 225 205 144 181 192 181 207 175 199 186 167 186 186 185 186 209 226 231 233 240 228 247 244 251 255 262 268 263 286 292 332 75 97 104 123 153 182
245 246 244 242 246 248 253 255 254 250 246 245 244 242 238 221 202 183 170 182 178 206 213 181 188 212 156 170 166 171 206 211 190 220 231 214 222 227 235 242 251 258 263 280 77 78 65 236 201 149 153 145 227 233
251 248 241 241 243 247 255 256 252 245 241 241 231 204 209 191 132 142 174 196 202 189 210 216 189 189 182 170 183 167 189 221 208 223 222 225 240 247 251 263 127 108 94 68 249 255 170 222 216 201 227 230 263 265
246 239 238 241 249 250 246 244 242 236 232 196 199 208 92 159 128 181 213 203 167 197 191 182 196 159 222 169 172 210 179 193 223 206 202 223 240 241 237 143 119 113 115 95 86 92 75 42 108 223 231 243 274 293
239 237 240 242 243 244 249 240 229 204 190 194 122 104 157 179 196 213 191 178 212 200 161 176 178 183 155 181 185 168 191 188 223 133 220 233 237 170 153 143 114 96 107 114 107 127 115 102 58 308 289 281 282 296
238 236 239 244 243 245 235 237 229 210 171 108 241 190 210 163 203 188 183 178 194 153 169 161 158 158 141 193 198 175 203 205 120 190 224 243 179 144 147 136 132 133 137 139 147 128 138 229 282 269 285 282 286 274
250 241 244 247 248 244 238 231 219 221 207 195 204 204 222 177 195 181 213 207 183 174 160 172 129 163 157 180 177 207 115 138 198 217 231 252 171 139 149 146 133 162 139 127 357 337 315 312 306 304 279 280 272 268
272 244 248 256 257 250 241 229 228 203 239 232 198 215 207 88 46 48 49 141 157 160 140 123 113 160 161 193 188 116 170 211 213 227 236 106 132 142 152 151 143 153 152 170 58 324 314 315 308 301 295 277 269 258
47 90 44 338 311 274 244 230 216 178 212 226 256 141 67 175 163 170 173 154 161 158 120 108 140 178 197 191 181 197 181 208 219 177 65 115 119 121 128 126 123 113 116 318 305 289 300 296 285 295 307 284 265 247
56 40 329 313 20 24 27 96 101 96 12 167 123 31 34 359 355 45 123 134 159 192 185 155 188 188 118 193 199 191 210 241 75 116 106 107 140 144 125 126 143 160 178 241 260 266 269 287 284 272 292 307 279 278
49 324 0 25 88 53 47 21 94 96 100 62 164 81 58 40 9 26 11 8 231 178 187 200 118 192 195 183 201 177 97 95 70 113 118 119 116 117 131 134 145 157 148 205 267 287 267 266 281 303 294 297 290 272
38 22 16 23 58 80 56 47 356 95 56 51 84 67 57 76 69 333 308 315 312 301 205 186 199 198 203 331 55 96 131 144 144 130 103 82 88 115 122 133 156 174 147 196 231 286 319 282 282 303 315 314 320 327
116 44 13 33 43 78 94 59 351 84 94 88 63 79 51 32 13 357 356 15 327 265 193 217 186 41 16 56 29 91 111 120 130 124 128 147 144 142 162 180 161 113 149 185 217 249 321 311 341 336 334 332 330 338
32 10 22 54 54 54 69 19 67 58 117 96 24 30 54 359 29 23 35 358 254 303 228 41 62 78 47 41 24 64 95 112 96 57 126 144 137 156 144 165 189 204 193 126 346 26 313 343 330 334 332 343 338 330
10 8 54 39 81 74 74 22 58 58 54 89 106 26 63 61 41 17 339 256 24 53 4 14 92 124 99 62 39 32 59 91 87 101 90 107 125 145 158 174 193 197 213 212 263 304 321 318 326 322 322 328 328 326
19 26 55 20 83 42 45 308 73 13 91 99 174 119 68 48 16 335 246 24 68 54 8 16 41 25 75 86 82 72 352 51 97 97 101 89 98 107 147 181 200 205 210 189 223 274 291 320 313 315 324 334 334 331
31 45 33 41 20 75 338 45 54 80 74 59 90 109 84 357 321 234 254 73 64 107 158 118 168 99 88 127 121 116 101 47 87 81 91 146 169 184 203 204 201 218 223 175 239 256 276 297 308 313 324 321 321 320
70 6 6 23 21 39 50 39 29 58 75 27 55 63 48 324 5 9 330 31 35 90 96 107 83 16 113 89 81 78 86 146 163 166 170 212 146 126 197 220 229 226 188 204 215 223 257 283 291 303 309 304 310 315
67 354 30 353 8 22 16 71 38 48 53 122 55 39 305 259 228 1 8 346 340 208 177 188 163 122 87 32 108 161 197 186 219 248 174 190 208 218 215 217 231 218 190 209 205 231 265 283 288 298 300 303 301 298
61 2 14 88 347 247 101 90 224 342 56 43 24 350 284 82 15 350 2 65 323 16 312 246 132 46 78 153 208 200 137 164 200 336 57 186 213 220 233 231 239 290 141 195 208 224 258 283 289 288 288 290 279 276
72 14 30 341 13 340 104 61 40 47 31 38 275 37 77 53 53 358 345 9 332 321 298 266 250 293 323 185 121 132 142 184 241 260 258 244 231 229 225 239 251 256 237 220 231 232 237 249 260 268 273 276 284 277
42 2 290 357 10 53 40 22 53 58 4 299 324 51 48 4 342 321 357 337 320 299 94 114 179 289 344 56 79 106 160 181 173 89 56 320 343 17 41 260 270 258 258 262 264 253 245 243 251 253 259 263 273 285
16 356 328 17 29 42 39 354 4 16 331 351 318 277 239 254 275 324 296 311 334 346 323 263 119 198 241 239 200 205 191 238 238 159 172 240 245 312 306 289 280 265 248 250 268 276 281 289 302 297 278 268 263 269
312 296 311 5 63 41 5 356 282 253 277 285 109 278 296 325 302 210 312 334 309 305 276 195 189 217 240 237 280 346 59 42 3 282 266 274 280 277 272 267 260 249 241 247 260 263 270 273 261 268 269 268 267 259
337 35 354 359 348 123 194 12 7 15 337 284 52 242 262 235 75 46 15 331 329 319 318 322 302 45 20 327 4 3 301 292 285 266 268 262 266 264 265 261 251 239 238 248 241 243 245 249 264 261 267 271 271 269
261 224 242 287 284 56 29 330 238 122 118 60 45 6 15 356 81 341 353 101 319 308 317 335 339 325 321 309 291 294 264 254 280 309 312 304 301 297 293 281 261 244 246 252 252 248 250 249 255 259 262 262 264 266